SCP
0 0 0 0 0 0 0 0 0 0 0 0 0 0 0 0 -0 0 -0 -0 0 0 0 0 0 0 0 0 0 0 0 0 0 0 0 0 0 0
0 0 0 0 0 0 0 0 0 0 0 0 0 0 0 0 0 0 -0 -0 0 0 0 0 0 0 0 0 0 0 0 0 0 0 0 0 0 0
-0 -0 0 0 0 0 0 0 0 0 0 0 0 0 0 0 0 0 0 -0 0 0 0 0 0 0 0 0 0 0 0 0 0 0 0 0 0 0
0 0 -0 0 0 0 0 0 0 0 0 0 0 0 0 0 0 0 0 0 0 0 0 0 0 0 0 0 0 0 0 0 0 0 0 0 0 0
0 0 -0 0 0 0 0 0 0 0 0 0 0 0 0 0 0 0 0 0 0 0 0 0 0 0 0 0 0 0 0 0 0 0 0 0 0 0
0 0 0 0 0 0 0 0 0 0 0 0 0 0 0 0 0 0 0 0 0 0 0 0 0 0 0 0 0 0 0 0 0 0 0 0 0 0
0 0 0 0 0 0 0 0 0 0 0 0 0 -0 0 0 0 0 0 0 0 0 0 0 0 0 0 0 0 0 0 0 0 0 0 0 0 0
0 0 0 0 0 0 0 0 0 -0 -0 -0 -0 0 0 0 0 0 0 0 0 0 0 0 0 0 0 0 0 0 0 0 0 0 0 0 0 0
0 0 0 0 0 0 0 0 -0 0 0 0 0 -0 0 0 0 0 0 0 0 0 0 0 0 0 0 0 0 0 0 0 0 0 0 0 0 0
0 0 0 0 0 0 0 0 0 0 -0 -0 -0 0 0 0 0 0 0 0 0 0 0 0 0 0 0 0 0 0 0 0 0 0 0 0 0 0
0 0 0 0 0 0 -0 0 -0 -0 0 0 0 0 0 0 0 0 0 0 0 0 0 0 0 0 0 0 0 0 0 0 0 0 0 0 0 0
0 0 -0 -0 -0 -0 -0 0 0 0 0 0 0 0 0 0 0 0 0 0 0 0 0 0 0 0 0 0 0 0 0 0 0 0 0 0 0 0
0 -0 -0 -0 0 -0 0 0 0 0 0 0 0 0 0 0 0 0 0 0 0 0 0 0 0 0 0 0 0 0 0 0 0 0 0 0 0 0
0 0 0 0 0 0 0 0 0 0 0 0 0 0 0 0 0 0 0 0 0 0 0 0 0 0 0 0 0 0 0 0 0 0 0 0 0 0
0 0 0 0 0 0 0 0 0 0 0 0 0 0 0 0 0 0 0 0 0 0 0 0 0 0 0 0 0 0 0 0 0 0 0 0 0 0
-0 0 0 0 0 0 0 0 0 0 0 0 0 0 0 0 0 0 0 0 0 0 0 0 0 0 0 0 0 0 0 0 0 0 0 0 0 0
-0 0 0 0 0 0 0 0 0 0 0 0 0 0 0 0 0 0 0 0 0 0 0 0 0 0 0 0 0 0 0 0 0 0 0 0 0 0
0 -0 -0 0 0 0 0 0 0 0 0 0 0 0 0 0 0 0 0 0 0 0 0 0 0 0 0 0 0 0 0 0 0 0 0 0 0 0
-0 0 0 0 0 0 0 0 0 0 0 0 0 0 0 0 0 0 0 0 0 0 0 0 0 0 0 0 0 0 0 0 0 0 0 0 0 0
0 0 0 0 0 0 0 0 0 0 0 0 0 0 0 0 0 0 0 0 0 0 0 0 0 0 0 0 0 0 0 0 0 0 0 0 0 0
0 0 0 0 0 0 0 0 0 0 0 0 0 0 0 0 0 0 0 0 0 0 0 0 0 0 0 0 0 0 0 0 0 0 0 0 0 0
0 0 0 0 0 0 0 0 0 0 0 0 0 0 0 0 0 0 0 0 0 0 0 0 0 0 0 0 0 0 0 0 0 0 0 0 0 0
0 0 0 0 0 0 0 0 0 0 0 0 -0 -0 -0 0 0 0 0 0 0 0 0 0 0 0 0 0 0 0 0 0 0 0 0 0 0 0
Wind_Speed_500mb
42 57 43 31 37 56 61 67 63 46 30 34 23 32 26 28 26 25 25 27 23 17 13 10 12 13 15 16 18 21 22 22 19 18 18 17 17 20
37 34 39 46 55 64 60 56 34 28 23 38 21 33 26 23 27 23 22 21 20 16 15 15 16 17 22 24 23 24 25 23 21 20 19 20 23 26
32 30 37 53 58 61 43 39 20 25 24 27 24 36 33 26 30 23 23 22 23 19 18 19 22 25 27 28 28 30 28 25 23 22 22 24 29 32
32 29 45 38 43 30 28 29 21 20 22 33 31 34 30 27 27 25 23 19 20 21 24 28 28 32 33 35 35 34 31 28 26 26 26 31 35 37
32 33 40 30 32 27 26 25 21 17 23 32 35 30 27 29 30 29 27 28 21 29 31 37 38 40 42 41 40 37 35 34 32 32 34 36 38 40
30 29 28 28 34 33 25 25 27 26 28 25 28 27 23 29 23 22 31 34 32 39 42 46 45 48 47 46 45 43 42 40 39 39 39 40 41 43
38 34 31 30 33 30 22 24 28 26 25 22 20 20 17 19 28 24 28 26 36 44 38 48 49 52 54 53 54 51 48 46 45 44 44 45 45 46
39 37 35 32 30 25 22 23 26 27 25 21 16 14 15 20 24 29 26 30 34 40 43 45 48 48 48 56 57 55 52 51 51 50 50 49 48 44
32 30 26 27 25 24 23 22 22 21 21 18 15 18 20 28 29 35 38 36 40 32 53 47 42 57 50 51 64 63 59 60 58 56 54 52 47 44
27 27 25 25 24 23 21 19 19 19 18 19 24 22 22 27 29 34 38 43 45 46 53 54 45 53 52 51 63 66 64 65 65 63 61 53 48 45
27 28 29 28 28 25 23 19 16 14 13 14 13 17 23 28 33 36 36 35 43 42 46 62 54 48 51 54 53 69 65 66 70 70 63 56 50 46
31 30 29 29 25 22 21 17 11 7 11 17 23 29 34 38 40 44 43 40 45 49 42 59 50 44 49 52 53 55 67 64 70 73 65 57 51 42
30 28 24 20 16 12 9 9 12 17 24 30 36 40 43 45 47 48 48 50 45 51 46 57 54 50 51 59 48 46 50 52 58 66 71 65 55 46
22 19 18 14 14 18 16 19 22 27 32 35 33 30 30 30 30 35 44 51 54 63 63 69 62 57 58 61 61 50 58 49 51 54 51 56 56 56
22 25 17 18 23 26 26 27 31 34 37 33 30 29 28 29 40 47 54 59 62 65 66 68 76 80 79 79 66 60 56 51 58 63 61 60 55 40
23 16 22 28 34 38 35 28 31 35 29 28 28 28 32 34 39 43 36 40 51 61 64 64 64 64 69 70 73 76 72 77 62 77 65 62 54 45
19 21 24 25 23 20 19 19 19 19 20 20 23 24 27 31 34 42 46 43 40 45 46 41 43 55 60 61 64 65 68 69 74 68 66 53 56 52
25 21 18 17 17 13 13 14 10 13 15 21 20 22 35 40 47 44 34 36 39 42 46 46 46 47 49 58 59 69 64 66 68 63 56 53 67 72
29 25 25 23 14 12 6 7 6 13 16 12 20 25 31 33 28 33 38 39 42 44 44 46 48 48 54 59 58 49 55 55 59 60 54 71 87 62
25 17 15 12 11 11 8 10 3 11 18 23 29 31 31 27 30 31 36 38 41 44 44 44 46 42 38 55 62 58 54 54 54 64 63 65 65 53
14 17 15 18 16 16 12 9 13 20 31 33 34 29 22 22 24 28 33 37 40 40 43 43 39 40 38 43 48 55 55 60 63 65 67 66 45 33
22 18 17 14 17 16 9 11 18 12 8 15 18 19 22 25 27 31 31 35 36 38 40 41 42 43 43 48 56 62 62 71 65 46 42 44 45 37
28 27 27 14 5 7 17 13 12 16 15 14 16 22 27 29 32 32 31 32 34 38 38 44 44 42 44 49 53 57 57 47 43 43 32 31 35 43
Wind_Direction_500mb
166 190 195 197 177 176 160 163 154 149 161 177 173 180 174 182 181 173 185 180 182 188 210 241 264 270 277 288 289 297 305 301 292 291 297 302 303 305
168 177 188 182 174 170 159 161 172 169 158 171 177 180 175 168 182 175 188 186 198 215 240 262 279 281 273 276 285 300 294 284 287 296 298 301 301 304
161 166 166 168 159 159 170 176 167 160 152 159 164 177 171 160 181 182 200 200 219 233 257 278 273 267 269 280 287 288 284 285 287 289 293 297 303 303
137 152 145 140 155 170 171 176 191 181 173 159 165 171 170 175 185 194 202 211 221 249 261 265 268 270 275 276 278 281 282 282 281 284 290 292 293 292
137 142 151 157 154 163 172 189 182 168 166 169 173 175 178 187 202 212 225 231 242 264 267 268 271 274 270 272 277 280 280 277 278 281 280 284 288 288
139 141 152 160 165 169 163 165 167 159 163 169 177 182 185 204 213 228 247 252 252 269 268 267 270 269 272 274 274 275 276 274 272 274 279 284 286 286
130 135 141 151 156 156 152 151 164 156 159 167 178 190 194 229 240 245 243 250 255 257 253 267 273 274 273 272 273 274 273 270 270 273 278 281 283 283
130 135 136 139 143 148 159 174 165 173 172 178 185 208 225 243 243 235 243 243 253 264 271 260 266 269 269 276 279 276 273 270 270 272 273 276 280 282
145 145 141 152 159 169 174 177 184 193 205 210 212 236 240 239 235 252 249 250 254 263 272 265 255 268 264 259 269 279 272 270 269 268 270 274 279 280
158 160 162 162 166 163 162 170 187 200 210 221 231 236 245 251 260 264 264 265 265 258 260 265 267 263 261 262 259 275 273 266 267 266 266 270 273 275
161 155 148 140 135 138 143 153 166 185 202 224 249 263 268 271 274 270 264 261 264 268 263 271 275 269 265 261 255 267 272 265 261 262 264 267 270 274
154 150 147 145 144 147 156 168 182 227 259 269 273 274 275 277 276 275 271 261 266 272 273 263 271 276 270 269 258 257 261 267 259 257 261 265 271 269
157 154 155 161 165 178 201 227 251 269 274 274 277 278 279 279 278 276 273 269 265 270 276 273 268 274 268 271 276 268 255 257 259 256 255 258 263 274
167 180 189 199 218 235 242 255 268 279 284 284 281 278 279 281 283 284 284 285 280 279 278 268 268 272 275 274 270 270 267 259 256 258 260 267 259 274
190 206 215 239 258 272 279 286 290 291 289 281 279 281 281 276 272 296 302 299 294 290 284 279 277 284 272 273 271 268 269 260 270 258 257 259 251 253
222 247 262 270 275 279 286 284 285 283 279 276 276 276 282 295 300 307 299 298 282 284 285 291 298 296 291 289 279 270 266 267 261 263 266 257 251 257
261 262 273 280 287 285 273 262 262 274 290 294 294 301 302 302 302 300 304 314 304 307 305 300 291 292 284 282 279 279 274 269 275 266 260 252 251 269
269 269 249 245 244 236 235 242 243 288 296 300 309 317 320 321 324 331 325 319 313 312 310 310 308 302 294 289 285 290 287 281 281 276 263 251 260 265
275 251 253 239 237 242 225 230 208 274 325 337 337 344 352 347 329 322 324 320 316 315 315 317 314 308 302 295 310 304 297 289 284 281 261 256 264 264
256 234 224 217 196 198 217 224 16 6 11 6 3 1 348 334 324 323 319 318 315 314 318 319 320 310 306 310 308 304 304 296 288 279 271 258 266 268
197 203 196 206 220 209 201 134 80 21 353 336 325 323 319 328 322 323 323 320 319 322 321 321 319 311 313 307 302 303 297 298 302 306 305 292 266 267
193 185 182 172 155 139 120 328 311 337 17 360 343 343 337 343 339 333 332 328 325 322 317 313 315 311 313 311 308 304 300 302 309 311 305 285 260 272
147 146 134 128 119 61 60 56 57 52 33 11 358 357 355 350 341 335 333 330 325 320 318 320 319 319 315 314 314 311 312 317 322 318 313 308 288 290
Wind_Speed_850mb
42 57 43 31 37 56 61 67 63 46 30 34 23 32 26 28 26 25 25 27 23 17 13 10 12 13 15 16 18 21 22 22 19 18 18 17 17 20
37 34 39 46 55 64 60 56 34 28 23 38 21 33 26 23 27 23 22 21 20 16 15 15 16 17 22 24 23 24 25 23 21 20 19 20 23 26
32 30 37 53 58 61 43 39 20 25 24 27 24 36 33 26 30 23 23 22 23 19 18 19 22 25 27 28 28 30 28 25 23 22 22 24 29 32
32 29 45 38 43 30 28 29 21 20 22 33 31 34 30 27 27 25 23 19 20 21 24 28 28 32 33 35 35 34 31 28 26 26 26 31 35 37
32 33 40 30 32 27 26 25 21 17 23 32 35 30 27 29 30 29 27 28 21 29 31 37 38 40 42 41 40 37 35 34 32 32 34 36 38 40
30 29 28 28 34 33 25 25 27 26 28 25 28 27 23 29 23 22 31 34 32 39 42 46 45 48 47 46 45 43 42 40 39 39 39 40 41 43
38 34 31 30 33 30 22 24 28 26 25 22 20 20 17 19 28 24 28 26 36 44 38 48 49 52 54 53 54 51 48 46 45 44 44 45 45 46
39 37 35 32 30 25 22 23 26 27 25 21 16 14 15 20 24 29 26 30 34 40 43 45 48 48 48 56 57 55 52 51 51 50 50 49 48 44
32 30 26 27 25 24 23 22 22 21 21 18 15 18 20 28 29 35 38 36 40 32 53 47 42 57 50 51 64 63 59 60 58 56 54 52 47 44
27 27 25 25 24 23 21 19 19 19 18 19 24 22 22 27 29 34 38 43 45 46 53 54 45 53 52 51 63 66 64 65 65 63 61 53 48 45
27 28 29 28 28 25 23 19 16 14 13 14 13 17 23 28 33 36 36 35 43 42 46 62 54 48 51 54 53 69 65 66 70 70 63 56 50 46
31 30 29 29 25 22 21 17 11 7 11 17 23 29 34 38 40 44 43 40 45 49 42 59 50 44 49 52 53 55 67 64 70 73 65 57 51 42
30 28 24 20 16 12 9 9 12 17 24 30 36 40 43 45 47 48 48 50 45 51 46 57 54 50 51 59 48 46 50 52 58 66 71 65 55 46
22 19 18 14 14 18 16 19 22 27 32 35 33 30 30 30 30 35 44 51 54 63 63 69 62 57 58 61 61 50 58 49 51 54 51 56 56 56
22 25 17 18 23 26 26 27 31 34 37 33 30 29 28 29 40 47 54 59 62 65 66 68 76 80 79 79 66 60 56 51 58 63 61 60 55 40
23 16 22 28 34 38 35 28 31 35 29 28 28 28 32 34 39 43 36 40 51 61 64 64 64 64 69 70 73 76 72 77 62 77 65 62 54 45
19 21 24 25 23 20 19 19 19 19 20 20 23 24 27 31 34 42 46 43 40 45 46 41 43 55 60 61 64 65 68 69 74 68 66 53 56 52
25 21 18 17 17 13 13 14 10 13 15 21 20 22 35 40 47 44 34 36 39 42 46 46 46 47 49 58 59 69 64 66 68 63 56 53 67 72
29 25 25 23 14 12 6 7 6 13 16 12 20 25 31 33 28 33 38 39 42 44 44 46 48 48 54 59 58 49 55 55 59 60 54 71 87 62
25 17 15 12 11 11 8 10 3 11 18 23 29 31 31 27 30 31 36 38 41 44 44 44 46 42 38 55 62 58 54 54 54 64 63 65 65 53
14 17 15 18 16 16 12 9 13 20 31 33 34 29 22 22 24 28 33 37 40 40 43 43 39 40 38 43 48 55 55 60 63 65 67 66 45 33
22 18 17 14 17 16 9 11 18 12 8 15 18 19 22 25 27 31 31 35 36 38 40 41 42 43 43 48 56 62 62 71 65 46 42 44 45 37
28 27 27 14 5 7 17 13 12 16 15 14 16 22 27 29 32 32 31 32 34 38 38 44 44 42 44 49 53 57 57 47 43 43 32 31 35 43
Wind_Direction_850mb
166 190 195 197 177 176 160 163 154 149 161 177 173 180 174 182 181 173 185 180 182 188 210 241 264 270 277 288 289 297 305 301 292 291 297 302 303 305
168 177 188 182 174 170 159 161 172 169 158 171 177 180 175 168 182 175 188 186 198 215 240 262 279 281 273 276 285 300 294 284 287 296 298 301 301 304
161 166 166 168 159 159 170 176 167 160 152 159 164 177 171 160 181 182 200 200 219 233 257 278 273 267 269 280 287 288 284 285 287 289 293 297 303 303
137 152 145 140 155 170 171 176 191 181 173 159 165 171 170 175 185 194 202 211 221 249 261 265 268 270 275 276 278 281 282 282 281 284 290 292 293 292
137 142 151 157 154 163 172 189 182 168 166 169 173 175 178 187 202 212 225 231 242 264 267 268 271 274 270 272 277 280 280 277 278 281 280 284 288 288
139 141 152 160 165 169 163 165 167 159 163 169 177 182 185 204 213 228 247 252 252 269 268 267 270 269 272 274 274 275 276 274 272 274 279 284 286 286
130 135 141 151 156 156 152 151 164 156 159 167 178 190 194 229 240 245 243 250 255 257 253 267 273 274 273 272 273 274 273 270 270 273 278 281 283 283
130 135 136 139 143 148 159 174 165 173 172 178 185 208 225 243 243 235 243 243 253 264 271 260 266 269 269 276 279 276 273 270 270 272 273 276 280 282
145 145 141 152 159 169 174 177 184 193 205 210 212 236 240 239 235 252 249 250 254 263 272 265 255 268 264 259 269 279 272 270 269 268 270 274 279 280
158 160 162 162 166 163 162 170 187 200 210 221 231 236 245 251 260 264 264 265 265 258 260 265 267 263 261 262 259 275 273 266 267 266 266 270 273 275
161 155 148 140 135 138 143 153 166 185 202 224 249 263 268 271 274 270 264 261 264 268 263 271 275 269 265 261 255 267 272 265 261 262 264 267 270 274
154 150 147 145 144 147 156 168 182 227 259 269 273 274 275 277 276 275 271 261 266 272 273 263 271 276 270 269 258 257 261 267 259 257 261 265 271 269
157 154 155 161 165 178 201 227 251 269 274 274 277 278 279 279 278 276 273 269 265 270 276 273 268 274 268 271 276 268 255 257 259 256 255 258 263 274
167 180 189 199 218 235 242 255 268 279 284 284 281 278 279 281 283 284 284 285 280 279 278 268 268 272 275 274 270 270 267 259 256 258 260 267 259 274
190 206 215 239 258 272 279 286 290 291 289 281 279 281 281 276 272 296 302 299 294 290 284 279 277 284 272 273 271 268 269 260 270 258 257 259 251 253
222 247 262 270 275 279 286 284 285 283 279 276 276 276 282 295 300 307 299 298 282 284 285 291 298 296 291 289 279 270 266 267 261 263 266 257 251 257
261 262 273 280 287 285 273 262 262 274 290 294 294 301 302 302 302 300 304 314 304 307 305 300 291 292 284 282 279 279 274 269 275 266 260 252 251 269
269 269 249 245 244 236 235 242 243 288 296 300 309 317 320 321 324 331 325 319 313 312 310 310 308 302 294 289 285 290 287 281 281 276 263 251 260 265
275 251 253 239 237 242 225 230 208 274 325 337 337 344 352 347 329 322 324 320 316 315 315 317 314 308 302 295 310 304 297 289 284 281 261 256 264 264
256 234 224 217 196 198 217 224 16 6 11 6 3 1 348 334 324 323 319 318 315 314 318 319 320 310 306 310 308 304 304 296 288 279 271 258 266 268
197 203 196 206 220 209 201 134 80 21 353 336 325 323 319 328 322 323 323 320 319 322 321 321 319 311 313 307 302 303 297 298 302 306 305 292 266 267
193 185 182 172 155 139 120 328 311 337 17 360 343 343 337 343 339 333 332 328 325 322 317 313 315 311 313 311 308 304 300 302 309 311 305 285 260 272
147 146 134 128 119 61 60 56 57 52 33 11 358 357 355 350 341 335 333 330 325 320 318 320 319 319 315 314 314 311 312 317 322 318 313 308 288 290